Weather History for Challis, ID

Change the Weather History Date:

Sunday, October 27, 2013

  Actual Average Record
Temperature  
Mean Temperature 41 °F 40 °F  
Max Temperature 57 °F 53 °F 71 °F (1966)
Min Temperature 24 °F 27 °F 8 °F (1919)
Degree Days  
Heating Degree Days 24 25  
Month to date heating degree days 607 540  
Since 1 July heating degree days 831 889  
Cooling Degree Days 0 0  
Month to date cooling degree days 0 0  
Year to date cooling degree days 420 248  
Moisture  
Dew Point 23 °F    
Average Humidity 54    
Maximum Humidity 81    
Minimum Humidity 26    
Precipitation  
Precipitation 0.00 in 0.03 in 0.44 in (1991)
Month to date precipitation 0.25 0.57  
Year to date precipitation 4.45 8.70  
Sea Level Pressure  
Sea Level Pressure 29.84 in    
Wind  
Wind Speed 2 mph (NNW)    
Max Wind Speed 20 mph    
Max Gust Speed 24 mph    
Visibility 10 miles    
Events      
T = Trace of Precipitation, MM = Missing Value Source: NWS Daily Summary

Daily Weather History Graph

Daily Weather History Graph

Search for Another Location

Airport:

Trip Planner

Search our weather history database for the weather conditions in past years. The results will help you decide how hot, cold, wet, or windy it might be!

Date:

Astronomy

Oct. 27, 2013 Rise Set
Actual Time 8:08 AM MDT 6:32 PM MDT
Civil Twilight 7:38 AM MDT 7:02 PM MDT
Nautical Twilight 7:03 AM MDT 7:36 PM MDT
Astronomical Twilight 6:30 AM MDT 8:10 PM MDT
Moon 12:53 AM MDT (10/27) 2:58 PM MDT (10/27)
Length of Visible Light 11h 24m
Length of Day
10h 24m
Last Quarter, 43% of the Moon is Illuminated
Oct 27
Last Quarter
Nov 3
New
Nov 9
First Quarter
Nov 17
Full
Nov 25
Last Quarter

Hourly Weather History & Observations

Time (MDT) Temp. Dew Point Humidity Pressure Visibility Wind Dir Wind Speed Gust Speed Precip Events Conditions
12:55 AM 34.0 °F 23.0 °F 64% 30.14 in 10.0 mi Calm Calm - N/A   Clear
1:55 AM 35.1 °F 23.0 °F 61% 30.10 in 10.0 mi Calm Calm - N/A   Clear
2:55 AM 30.0 °F 21.0 °F 69% 30.10 in 10.0 mi Calm Calm - N/A   Clear
3:55 AM 30.9 °F 21.0 °F 67% 30.07 in 10.0 mi Calm Calm - N/A   Clear
4:55 AM 30.9 °F 21.9 °F 69% 30.04 in 10.0 mi Calm Calm - N/A   Clear
5:55 AM 28.9 °F 19.9 °F 69% 30.05 in 10.0 mi Calm Calm - N/A   Clear
6:55 AM 27.0 °F 21.0 °F 78% 30.04 in 10.0 mi Calm Calm - N/A   Clear
7:55 AM 26.1 °F 19.0 °F 75% 30.01 in 10.0 mi Calm Calm - N/A   Clear
8:55 AM 30.0 °F 21.0 °F 69% 29.99 in 10.0 mi Calm Calm - N/A   Clear
9:55 AM 36.0 °F 21.9 °F 57% 29.96 in 10.0 mi Calm Calm - N/A   Clear
10:55 AM 39.0 °F 24.1 °F 55% 29.91 in 10.0 mi Calm Calm - N/A   Clear
11:55 AM 44.1 °F 24.1 °F 45% 29.87 in 10.0 mi Calm Calm - N/A   Clear
12:55 PM 48.0 °F 24.1 °F 39% 29.80 in 10.0 mi Calm Calm - N/A   Clear
1:55 PM 51.1 °F 25.0 °F 36% 29.73 in 10.0 mi NNE 3.5 mph - N/A   Clear
2:55 PM 55.9 °F 21.9 °F 27% 29.67 in 10.0 mi North 5.8 mph - N/A   Clear
3:55 PM 57.0 °F 24.1 °F 28% 29.62 in 10.0 mi NW 4.6 mph - N/A   Clear
4:55 PM 55.9 °F 23.0 °F 28% 29.61 in 10.0 mi WNW 4.6 mph - N/A   Overcast
5:55 PM 55.9 °F 21.0 °F 26% 29.61 in 10.0 mi North 3.5 mph - N/A   Mostly Cloudy
6:55 PM 52.0 °F 21.9 °F 31% 29.62 in 10.0 mi WNW 6.9 mph - N/A   Clear
7:55 PM 46.9 °F 24.1 °F 41% 29.66 in 10.0 mi Calm Calm - N/A   Partly Cloudy
8:55 PM 46.9 °F 25.0 °F 42% 29.67 in 10.0 mi Calm Calm - N/A   Overcast
9:55 PM 51.1 °F 23.0 °F 33% 29.64 in 10.0 mi ESE 3.5 mph - N/A   Overcast
10:55 PM 48.0 °F 26.1 °F 42% 29.66 in 10.0 mi NNE 3.5 mph - N/A   Overcast
11:55 PM 48.9 °F 27.0 °F 43% 29.63 in 10.0 mi Calm Calm - N/A   Overcast